TimeCDT,TemperatureF,Dew PointF,Humidity,Sea Level PressureIn,VisibilityMPH,Wind Direction,Wind SpeedMPH,Gust SpeedMPH,PrecipitationIn,Events,Conditions,WindDirDegrees,DateUTC
12:53 AM,81.0,64.9,58,29.99,10.0,SSE,6.9,-,N/A,,Clear,160,2013-08-26 05:53:00
1:53 AM,79.0,64.9,62,29.99,10.0,SE,5.8,-,N/A,,Clear,130,2013-08-26 06:53:00
2:53 AM,78.1,64.9,64,29.98,10.0,SE,6.9,-,N/A,,Overcast,140,2013-08-26 07:53:00
3:53 AM,77.0,66.0,69,30.00,10.0,SSE,5.8,-,N/A,,Partly Cloudy,150,2013-08-26 08:53:00
4:53 AM,77.0,66.9,71,29.99,10.0,ESE,6.9,-,N/A,,Clear,120,2013-08-26 09:53:00
5:53 AM,77.0,66.9,71,30.00,10.0,ESE,5.8,-,N/A,,Clear,120,2013-08-26 10:53:00
6:53 AM,75.9,68.0,76,30.01,10.0,SSE,9.2,-,N/A,,Clear,160,2013-08-26 11:53:00
7:53 AM,78.1,68.0,71,30.02,10.0,South,6.9,-,N/A,,Clear,180,2013-08-26 12:53:00
8:53 AM,81.0,69.1,67,30.01,10.0,South,10.4,-,N/A,,Clear,180,2013-08-26 13:53:00
9:53 AM,81.0,69.1,67,30.02,10.0,SSE,5.8,-,N/A,,Mostly Cloudy,160,2013-08-26 14:53:00
10:53 AM,84.9,70.0,61,30.01,10.0,SSE,5.8,-,N/A,,Clear,160,2013-08-26 15:53:00
11:53 AM,88.0,71.1,57,29.99,10.0,SE,8.1,-,N/A,,Clear,130,2013-08-26 16:53:00
12:53 PM,91.0,72.0,53,29.96,10.0,South,9.2,-,N/A,,Clear,170,2013-08-26 17:53:00
1:53 PM,93.0,73.0,52,29.94,10.0,South,12.7,-,N/A,,Clear,170,2013-08-26 18:53:00
2:53 PM,95.0,73.9,50,29.92,10.0,South,13.8,-,N/A,,Clear,170,2013-08-26 19:53:00
3:53 PM,96.1,73.0,47,29.91,10.0,SSW,12.7,-,N/A,,Clear,200,2013-08-26 20:53:00
4:53 PM,93.0,73.9,54,29.90,10.0,SSW,12.7,-,N/A,,Clear,200,2013-08-26 21:53:00
5:53 PM,93.0,73.9,54,29.89,10.0,SSW,12.7,-,N/A,,Clear,200,2013-08-26 22:53:00
6:53 PM,91.0,75.0,59,29.86,10.0,SSW,12.7,-,N/A,,Clear,200,2013-08-26 23:53:00
7:53 PM,87.1,75.0,67,29.88,10.0,SSE,4.6,-,N/A,,Clear,150,2013-08-27 00:53:00
8:53 PM,86.0,73.9,67,29.88,10.0,South,6.9,-,N/A,,Clear,170,2013-08-27 01:53:00
9:53 PM,84.9,75.0,72,29.88,10.0,South,6.9,-,N/A,,Clear,170,2013-08-27 02:53:00
10:53 PM,84.0,73.9,72,29.87,10.0,South,10.4,-,N/A,,Clear,170,2013-08-27 03:53:00
11:53 PM,84.0,73.0,69,29.87,10.0,South,6.9,-,N/A,,Clear,170,2013-08-27 04:53:00